Starlink 34386

operational
NORAD ID: 66095 Int'l Des: 2025-236 Owner: SPXS Country: US Constellation: starlink
NOTLE

Starlink 34386について

説明を読み込み中...

リアルタイム位置

3D地球を読み込み中...

次回通過

高度履歴

Altitude vs Time

uPlot chart will show altitude changes over time

軌道要素

1 66095C 25236L 25293.08590278 .00531150 00000+0 81248-3 0 2931
2 66095 53.1611 48.2375 0008561 263.2457 17.2964 16.03049724 19
Epoch: Oct 20, 2025 • Age: 16 hours

現在のステータス

高度 266.7 km
速度 7.75 km/s
衛星直下点 20.36°N, 67.77°W
打ち上げ日 Oct 19, 2025
運用期間 1 days
タイプ internet

技術仕様

分類 Payload
質量 575.00 kg
乾燥質量 530.00 kg
総質量 575.00 kg
長さ 0.30 m
直径 4.10 m
スパン 29.00 m
形状 Box + pan
製造者 SPXS
バスタイプ Starlink V2MO
フェーズステータス In Orbit
所有者/国 SPXS/US

大規模コンステレーション

Loading constellations...